Back to catalog

STARLINK-32764

AliveCommunicationsVLEO
NORAD 62570·PAYLOAD·🇺🇸 United States

Launched Jan 10, 2025 from Cape Canaveral Space Force Station

Loading…

Next Passes (next 24 hours)

TLE

FreshSource: CelesTrak SupGP

Epoch: Sep 14, 2026, 20:40 UTC

1 62570C 25006S   26257.86159722 -.00030088  00000+0 -10899-2 0  2571
2 62570  43.0009 304.6055 0001424 267.1368 310.5448 15.27591283    14

Track STARLINK-32764 in real time with AllMySat

Download on the App Store